Time,TemperatureF,DewpointF,PressureIn,WindDirection,WindDirectionDegrees,WindSpeedMPH,WindSpeedGustMPH,Humidity,HourlyPrecipIn,Conditions,Clouds,dailyrainin,SoftwareType,DateUTC
2013-03-23 00:00:00,40.8,35.1,29.20,North,0,0.9,0.9,80,0.00,,OVC240,0.00,VWS V14.01,2013-03-23 05:00:00,
2013-03-23 00:08:00,41.0,35.6,29.20,North,0,0.0,0.0,81,0.00,,OVC240,0.00,VWS V14.01,2013-03-23 05:08:00,
2013-03-23 00:10:00,41.0,35.6,29.20,North,0,0.0,0.0,81,0.00,,OVC240,0.00,VWS V14.01,2013-03-23 05:10:00,
2013-03-23 00:19:00,41.2,35.8,29.20,North,0,1.6,1.6,81,0.00,,OVC240,0.00,VWS V14.01,2013-03-23 05:19:00,
2013-03-23 00:20:00,41.2,35.8,29.20,North,0,1.6,1.6,81,0.00,,OVC240,0.00,VWS V14.01,2013-03-23 05:20:00,
2013-03-23 00:28:00,41.2,35.5,29.20,North,0,0.0,0.0,80,0.00,,OVC240,0.00,VWS V14.01,2013-03-23 05:28:00,
2013-03-23 00:30:00,41.2,35.5,29.20,North,0,0.0,0.0,80,0.00,,OVC240,0.00,VWS V14.01,2013-03-23 05:30:00,
2013-03-23 00:38:00,41.4,35.0,29.20,North,0,0.0,0.0,78,0.00,,OVC240,0.00,VWS V14.01,2013-03-23 05:38:00,
2013-03-23 00:40:00,41.4,35.0,29.20,North,0,0.0,0.0,78,0.00,,OVC240,0.00,VWS V14.01,2013-03-23 05:40:00,
2013-03-23 00:48:00,41.4,35.0,29.20,North,0,0.0,0.0,78,0.00,,OVC240,0.00,VWS V14.01,2013-03-23 05:48:00,
2013-03-23 00:50:00,41.4,35.0,29.20,North,0,0.0,0.0,78,0.00,,OVC240,0.00,VWS V14.01,2013-03-23 05:50:00,
2013-03-23 00:58:00,41.4,35.3,29.20,North,0,1.3,1.3,79,0.00,,OVC240,0.00,VWS V14.01,2013-03-23 05:58:00,
2013-03-23 01:00:00,41.4,35.3,29.20,North,0,1.3,1.3,79,0.00,,OVC240,0.00,VWS V14.01,2013-03-23 06:00:00,
2013-03-23 01:08:00,41.4,35.3,29.20,North,0,0.0,0.0,79,0.00,,OVC240,0.00,VWS V14.01,2013-03-23 06:08:00,
2013-03-23 01:10:00,41.4,35.3,29.20,North,0,0.0,0.0,79,0.00,,OVC240,0.00,VWS V14.01,2013-03-23 06:10:00,
2013-03-23 01:19:00,41.5,35.8,29.20,NNE,22,0.0,0.0,80,0.00,,OVC240,0.00,VWS V14.01,2013-03-23 06:19:00,
2013-03-23 01:20:00,41.5,35.8,29.20,NNE,22,0.0,0.0,80,0.00,,OVC240,0.00,VWS V14.01,2013-03-23 06:20:00,
2013-03-23 01:28:00,41.5,36.2,29.17,North,0,1.1,1.1,81,0.00,,OVC240,0.00,VWS V14.01,2013-03-23 06:28:00,
2013-03-23 01:30:00,41.5,36.2,29.17,North,0,1.1,1.1,81,0.00,,OVC240,0.00,VWS V14.01,2013-03-23 06:30:00,
2013-03-23 01:38:00,41.7,36.6,29.17,NE,45,1.3,1.6,82,0.00,,OVC240,0.00,VWS V14.01,2013-03-23 06:38:00,
2013-03-23 01:40:00,41.7,36.6,29.17,NE,45,1.3,1.6,82,0.00,,OVC240,0.00,VWS V14.01,2013-03-23 06:40:00,
2013-03-23 01:48:00,41.7,36.6,29.20,NNE,22,0.0,0.0,82,0.00,,OVC240,0.00,VWS V14.01,2013-03-23 06:48:00,
2013-03-23 01:50:00,41.7,36.6,29.20,NNE,22,0.0,0.0,82,0.00,,OVC240,0.00,VWS V14.01,2013-03-23 06:50:00,
2013-03-23 01:58:00,41.7,36.3,29.20,North,0,0.0,0.0,81,0.00,,OVC240,0.00,VWS V14.01,2013-03-23 06:58:00,
2013-03-23 02:00:00,41.7,36.3,29.20,North,0,0.0,0.0,81,0.00,,OVC240,0.00,VWS V14.01,2013-03-23 07:00:00,
2013-03-23 02:08:00,41.7,36.6,29.20,North,0,0.0,0.0,82,0.00,,OVC240,0.00,VWS V14.01,2013-03-23 07:08:00,
2013-03-23 02:10:00,41.7,36.6,29.20,North,0,0.0,0.0,82,0.00,,OVC240,0.00,VWS V14.01,2013-03-23 07:10:00,
2013-03-23 02:18:00,41.9,37.7,29.20,NE,45,2.5,2.7,85,0.00,,OVC240,0.00,VWS V14.01,2013-03-23 07:18:00,
2013-03-23 02:20:00,41.9,37.7,29.20,NE,45,2.5,2.7,85,0.00,,OVC240,0.00,VWS V14.01,2013-03-23 07:20:00,
2013-03-23 02:28:00,41.7,37.2,29.20,NE,45,0.0,0.0,84,0.00,,OVC240,0.00,VWS V14.01,2013-03-23 07:28:00,
2013-03-23 02:30:00,41.7,37.2,29.20,NE,45,0.0,0.0,84,0.00,,OVC240,0.00,VWS V14.01,2013-03-23 07:30:00,
2013-03-23 02:48:00,41.9,37.4,29.17,NE,45,1.1,1.1,84,0.00,,OVC240,0.00,VWS V14.01,2013-03-23 07:48:00,
2013-03-23 02:50:00,41.9,37.4,29.17,NE,45,1.1,1.1,84,0.00,,OVC240,0.00,VWS V14.01,2013-03-23 07:50:00,
2013-03-23 02:58:00,41.7,37.5,29.20,NE,45,0.0,0.0,85,0.00,,OVC240,0.00,VWS V14.01,2013-03-23 07:58:00,
2013-03-23 03:00:00,41.7,37.5,29.20,NE,45,0.0,0.0,85,0.00,,OVC240,0.00,VWS V14.01,2013-03-23 08:00:00,
2013-03-23 03:08:00,41.5,37.4,29.20,North,0,1.3,1.6,85,0.00,,OVC240,0.00,VWS V14.01,2013-03-23 08:08:00,
2013-03-23 03:10:00,41.5,37.4,29.20,North,0,1.3,1.6,85,0.00,,OVC240,0.00,VWS V14.01,2013-03-23 08:10:00,
2013-03-23 03:18:00,41.4,37.8,29.20,NE,45,0.9,1.6,87,0.00,,OVC240,0.00,VWS V14.01,2013-03-23 08:18:00,
2013-03-23 03:20:00,41.4,37.8,29.20,NE,45,0.9,1.6,87,0.00,,OVC240,0.00,VWS V14.01,2013-03-23 08:20:00,
2013-03-23 03:28:00,41.0,38.0,29.17,North,0,0.9,1.1,89,0.04,,OVC240,0.04,VWS V14.01,2013-03-23 08:28:00,
2013-03-23 03:30:00,41.0,38.0,29.17,North,0,0.9,1.1,89,0.04,,OVC240,0.04,VWS V14.01,2013-03-23 08:30:00,
2013-03-23 03:39:00,41.0,37.7,29.17,North,0,0.0,0.0,88,0.04,,OVC240,0.04,VWS V14.01,2013-03-23 08:39:00,
2013-03-23 03:40:00,41.0,37.7,29.17,North,0,0.0,0.0,88,0.04,,OVC240,0.04,VWS V14.01,2013-03-23 08:40:00,
2013-03-23 03:48:00,41.0,38.6,29.17,NW,315,0.0,0.0,91,0.04,,OVC240,0.04,VWS V14.01,2013-03-23 08:48:00,
2013-03-23 03:50:00,41.0,38.6,29.17,NW,315,0.0,0.0,91,0.04,,OVC240,0.04,VWS V14.01,2013-03-23 08:50:00,
2013-03-23 03:58:00,41.0,38.3,29.17,North,0,0.0,0.0,90,0.04,,OVC240,0.04,VWS V14.01,2013-03-23 08:58:00,
2013-03-23 04:00:00,41.0,38.3,29.17,North,0,0.0,0.0,90,0.04,,OVC240,0.04,VWS V14.01,2013-03-23 09:00:00,
2013-03-23 04:08:00,41.0,38.9,29.17,North,0,0.9,1.3,92,0.04,,OVC240,0.04,VWS V14.01,2013-03-23 09:08:00,
2013-03-23 04:10:00,41.0,38.9,29.17,North,0,0.9,1.3,92,0.04,,OVC240,0.04,VWS V14.01,2013-03-23 09:10:00,
2013-03-23 04:19:00,41.2,39.6,29.17,NE,45,2.7,2.7,94,0.04,,OVC240,0.04,VWS V14.01,2013-03-23 09:19:00,
2013-03-23 04:20:00,41.2,39.6,29.17,NE,45,2.7,2.7,94,0.04,,OVC240,0.04,VWS V14.01,2013-03-23 09:20:00,
2013-03-23 04:28:00,41.0,39.7,29.14,NE,45,0.0,0.0,95,0.04,,OVC240,0.04,VWS V14.01,2013-03-23 09:28:00,
2013-03-23 04:30:00,41.0,39.7,29.15,NE,45,0.0,0.0,95,0.04,,OVC240,0.04,VWS V14.01,2013-03-23 09:30:00,
2013-03-23 04:39:00,41.0,39.7,29.14,NNE,22,2.5,2.5,95,0.00,,OVC240,0.04,VWS V14.01,2013-03-23 09:39:00,
2013-03-23 04:40:00,41.0,39.7,29.15,NNE,22,2.5,2.5,95,0.00,,OVC240,0.04,VWS V14.01,2013-03-23 09:40:00,
2013-03-23 04:48:00,40.6,39.0,29.14,NNE,22,0.9,1.3,94,0.00,,OVC240,0.04,VWS V14.01,2013-03-23 09:48:00,
2013-03-23 04:50:00,40.6,39.0,29.15,NNE,22,0.9,1.3,94,0.00,,OVC240,0.04,VWS V14.01,2013-03-23 09:50:00,
2013-03-23 04:58:00,40.6,39.3,29.17,NE,45,2.5,2.5,95,0.00,,OVC240,0.04,VWS V14.01,2013-03-23 09:58:00,
2013-03-23 05:00:00,40.6,39.3,29.17,NE,45,2.5,2.5,95,0.00,,OVC240,0.04,VWS V14.01,2013-03-23 10:00:00,
2013-03-23 05:08:00,40.6,39.3,29.17,NNE,22,1.3,1.6,95,0.00,,OVC240,0.04,VWS V14.01,2013-03-23 10:08:00,
2013-03-23 05:10:00,40.6,39.3,29.17,NNE,22,1.3,1.6,95,0.00,,OVC240,0.04,VWS V14.01,2013-03-23 10:10:00,
2013-03-23 05:18:00,40.6,39.3,29.17,NE,45,1.6,1.6,95,0.00,,OVC240,0.04,VWS V14.01,2013-03-23 10:18:00,
2013-03-23 05:20:00,40.6,39.3,29.17,NE,45,1.6,1.6,95,0.00,,OVC240,0.04,VWS V14.01,2013-03-23 10:20:00,
2013-03-23 05:28:00,40.6,39.0,29.20,NE,45,0.0,0.0,94,0.00,,OVC240,0.04,VWS V14.01,2013-03-23 10:28:00,
2013-03-23 05:30:00,40.6,39.0,29.20,NE,45,0.0,0.0,94,0.00,,OVC240,0.04,VWS V14.01,2013-03-23 10:30:00,
2013-03-23 05:38:00,40.8,39.2,29.20,NE,45,0.0,0.0,94,0.00,,OVC240,0.04,VWS V14.01,2013-03-23 10:38:00,
2013-03-23 05:40:00,40.8,39.2,29.20,NE,45,0.0,0.0,94,0.00,,OVC240,0.04,VWS V14.01,2013-03-23 10:40:00,
2013-03-23 05:48:00,40.6,39.0,29.20,NE,45,0.0,0.0,94,0.04,,OVC240,0.08,VWS V14.01,2013-03-23 10:48:00,
2013-03-23 05:50:00,40.6,39.0,29.20,NE,45,0.0,0.0,94,0.04,,OVC240,0.08,VWS V14.01,2013-03-23 10:50:00,
2013-03-23 05:59:00,40.6,39.0,29.20,SSW,202,1.1,1.3,94,0.04,,OVC240,0.08,VWS V14.01,2013-03-23 10:59:00,
2013-03-23 06:00:00,40.6,39.0,29.20,SSW,202,1.1,1.3,94,0.04,,OVC240,0.08,VWS V14.01,2013-03-23 11:00:00,
2013-03-23 06:09:00,40.6,39.3,29.20,NE,45,0.0,0.9,95,0.04,,OVC240,0.08,VWS V14.01,2013-03-23 11:09:00,
2013-03-23 06:10:00,40.6,39.3,29.20,NE,45,0.0,0.9,95,0.04,,OVC240,0.08,VWS V14.01,2013-03-23 11:10:00,
2013-03-23 06:18:00,40.5,39.4,29.17,North,0,0.0,0.9,96,0.09,,OVC240,0.13,VWS V14.01,2013-03-23 11:18:00,
2013-03-23 06:20:00,40.5,39.4,29.17,North,0,0.0,0.9,96,0.09,,OVC240,0.13,VWS V14.01,2013-03-23 11:20:00,
2013-03-23 06:28:00,40.6,39.6,29.17,NE,45,0.0,0.0,96,0.09,,OVC240,0.13,VWS V14.01,2013-03-23 11:28:00,
2013-03-23 06:30:00,40.6,39.6,29.17,NE,45,0.0,0.0,96,0.09,,OVC240,0.13,VWS V14.01,2013-03-23 11:30:00,
2013-03-23 06:39:00,40.6,39.6,29.17,NE,45,0.0,0.0,96,0.09,,OVC240,0.13,VWS V14.01,2013-03-23 11:39:00,
2013-03-23 06:40:00,40.6,39.6,29.17,NE,45,0.0,0.0,96,0.09,,OVC240,0.13,VWS V14.01,2013-03-23 11:40:00,
2013-03-23 06:48:00,40.6,39.9,29.17,North,0,1.6,1.6,97,0.09,,OVC240,0.13,VWS V14.01,2013-03-23 11:48:00,
2013-03-23 06:50:00,40.6,39.9,29.17,North,0,1.6,1.6,97,0.09,,OVC240,0.13,VWS V14.01,2013-03-23 11:50:00,
2013-03-23 06:58:00,40.6,39.9,29.17,WNW,292,1.1,1.1,97,0.05,,OVC240,0.13,VWS V14.01,2013-03-23 11:58:00,
2013-03-23 07:00:00,40.6,39.9,29.17,WNW,292,1.1,1.1,97,0.05,,OVC240,0.13,VWS V14.01,2013-03-23 12:00:00,
2013-03-23 07:08:00,41.0,40.0,29.17,WNW,292,0.0,0.0,96,0.05,,OVC240,0.13,VWS V14.01,2013-03-23 12:08:00,
2013-03-23 07:10:00,41.0,40.0,29.17,WNW,292,0.0,0.0,96,0.05,,OVC240,0.13,VWS V14.01,2013-03-23 12:10:00,
2013-03-23 07:18:00,41.0,40.0,29.20,NNE,22,2.2,2.2,96,0.05,,OVC240,0.13,VWS V14.01,2013-03-23 12:18:00,
2013-03-23 07:20:00,41.0,40.0,29.20,NNE,22,2.2,2.2,96,0.05,,OVC240,0.13,VWS V14.01,2013-03-23 12:20:00,
2013-03-23 07:28:00,41.2,40.4,29.17,NE,45,1.6,1.6,97,0.00,,OVC240,0.13,VWS V14.01,2013-03-23 12:28:00,
2013-03-23 07:30:00,41.2,40.4,29.17,NE,45,1.6,1.6,97,0.00,,OVC240,0.13,VWS V14.01,2013-03-23 12:30:00,
2013-03-23 07:38:00,41.2,40.4,29.17,North,0,1.6,1.6,97,0.00,,OVC240,0.13,VWS V14.01,2013-03-23 12:38:00,
2013-03-23 07:40:00,41.2,40.4,29.17,North,0,1.6,1.6,97,0.00,,OVC240,0.13,VWS V14.01,2013-03-23 12:40:00,
2013-03-23 07:48:00,41.2,40.4,29.17,NE,45,2.5,2.7,97,0.00,,OVC240,0.13,VWS V14.01,2013-03-23 12:48:00,
2013-03-23 07:50:00,41.2,40.4,29.17,NE,45,2.5,2.7,97,0.00,,OVC240,0.13,VWS V14.01,2013-03-23 12:50:00,
2013-03-23 07:58:00,41.4,40.6,29.17,NE,45,1.3,1.3,97,0.00,,OVC240,0.13,VWS V14.01,2013-03-23 12:58:00,
2013-03-23 08:00:00,41.4,40.6,29.17,NE,45,1.3,1.3,97,0.00,,OVC240,0.13,VWS V14.01,2013-03-23 13:00:00,
2013-03-23 08:08:00,41.5,40.8,29.17,NE,45,0.9,0.9,97,0.00,,OVC240,0.13,VWS V14.01,2013-03-23 13:08:00,
2013-03-23 08:10:00,41.5,40.8,29.17,NE,45,0.9,0.9,97,0.00,,OVC240,0.13,VWS V14.01,2013-03-23 13:10:00,
2013-03-23 08:18:00,41.7,40.9,29.17,NE,45,2.0,2.0,97,0.00,,OVC240,0.13,VWS V14.01,2013-03-23 13:18:00,
2013-03-23 08:20:00,41.7,40.9,29.17,NE,45,2.0,2.0,97,0.00,,OVC240,0.13,VWS V14.01,2013-03-23 13:20:00,
2013-03-23 08:28:00,42.3,41.7,29.20,NE,45,1.3,1.3,98,0.00,,OVC240,0.13,VWS V14.01,2013-03-23 13:28:00,
2013-03-23 08:30:00,42.3,41.7,29.20,NE,45,1.3,1.3,98,0.00,,OVC240,0.13,VWS V14.01,2013-03-23 13:30:00,
2013-03-23 08:38:00,43.0,42.2,29.20,NE,45,1.3,1.3,97,0.00,,OVC240,0.13,VWS V14.01,2013-03-23 13:38:00,
2013-03-23 08:40:00,43.0,42.2,29.20,NE,45,1.3,1.3,97,0.00,,OVC240,0.13,VWS V14.01,2013-03-23 13:40:00,
2013-03-23 08:49:00,44.1,43.3,29.20,NE,45,0.0,0.0,97,0.00,,OVC240,0.13,VWS V14.01,2013-03-23 13:49:00,
2013-03-23 08:50:00,44.1,43.3,29.20,NE,45,0.0,0.0,97,0.00,,OVC240,0.13,VWS V14.01,2013-03-23 13:50:00,
2013-03-23 09:09:00,44.2,43.2,29.20,North,0,1.6,1.6,96,0.00,,OVC240,0.13,VWS V14.01,2013-03-23 14:09:00,
2013-03-23 09:10:00,44.2,43.2,29.20,North,0,1.6,1.6,96,0.00,,OVC240,0.13,VWS V14.01,2013-03-23 14:10:00,
2013-03-23 09:18:00,44.8,43.7,29.20,NE,45,3.4,3.6,96,0.00,,OVC240,0.13,VWS V14.01,2013-03-23 14:18:00,
2013-03-23 09:20:00,44.8,43.7,29.20,NE,45,3.4,3.6,96,0.00,,OVC240,0.13,VWS V14.01,2013-03-23 14:20:00,
2013-03-23 09:28:00,44.8,43.2,29.20,NE,45,1.3,1.3,94,0.00,,OVC240,0.13,VWS V14.01,2013-03-23 14:28:00,
2013-03-23 09:30:00,44.8,43.2,29.20,NE,45,1.3,1.3,94,0.00,,OVC240,0.13,VWS V14.01,2013-03-23 14:30:00,
2013-03-23 09:38:00,44.6,43.0,29.20,North,0,1.3,1.6,94,0.00,,OVC240,0.13,VWS V14.01,2013-03-23 14:38:00,
2013-03-23 09:40:00,44.6,43.0,29.20,North,0,1.3,1.6,94,0.00,,OVC240,0.13,VWS V14.01,2013-03-23 14:40:00,
2013-03-23 09:48:00,45.3,43.4,29.20,NE,45,1.1,1.1,93,0.00,,OVC240,0.13,VWS V14.01,2013-03-23 14:48:00,
2013-03-23 09:50:00,45.3,43.4,29.20,NE,45,1.1,1.1,93,0.00,,OVC240,0.13,VWS V14.01,2013-03-23 14:50:00,
2013-03-23 09:58:00,45.3,43.1,29.17,NNE,22,2.0,2.2,92,0.00,,OVC240,0.13,VWS V14.01,2013-03-23 14:58:00,
2013-03-23 10:00:00,45.3,43.1,29.17,NNE,22,2.0,2.2,92,0.00,,OVC240,0.13,VWS V14.01,2013-03-23 15:00:00,
2013-03-23 10:08:00,45.3,42.6,29.17,NE,45,3.4,3.4,90,0.00,,OVC240,0.13,VWS V14.01,2013-03-23 15:08:00,
2013-03-23 10:10:00,45.3,42.6,29.17,NE,45,3.4,3.4,90,0.00,,OVC240,0.13,VWS V14.01,2013-03-23 15:10:00,
2013-03-23 10:18:00,45.5,42.5,29.17,NE,45,1.6,2.0,89,0.00,,OVC240,0.13,VWS V14.01,2013-03-23 15:18:00,
2013-03-23 10:20:00,45.5,42.5,29.17,NE,45,1.6,2.0,89,0.00,,OVC240,0.13,VWS V14.01,2013-03-23 15:20:00,
2013-03-23 10:28:00,45.7,42.3,29.20,NE,45,2.9,2.9,88,0.00,,OVC240,0.13,VWS V14.01,2013-03-23 15:28:00,
2013-03-23 10:30:00,45.7,42.3,29.20,NE,45,2.9,2.9,88,0.00,,OVC240,0.13,VWS V14.01,2013-03-23 15:30:00,
2013-03-23 10:38:00,46.0,42.4,29.20,North,0,2.5,2.5,87,0.00,,OVC240,0.13,VWS V14.01,2013-03-23 15:38:00,
2013-03-23 10:40:00,46.0,42.4,29.20,North,0,2.5,2.5,87,0.00,,OVC240,0.13,VWS V14.01,2013-03-23 15:40:00,
2013-03-23 10:49:00,46.2,42.3,29.20,NE,45,4.3,4.3,86,0.00,,OVC240,0.13,VWS V14.01,2013-03-23 15:49:00,
2013-03-23 10:50:00,46.2,42.3,29.20,NE,45,4.3,4.3,86,0.00,,OVC240,0.13,VWS V14.01,2013-03-23 15:50:00,
2013-03-23 10:59:00,46.4,42.1,29.20,North,0,1.6,3.6,85,0.00,,OVC240,0.13,VWS V14.01,2013-03-23 15:59:00,
2013-03-23 11:00:00,46.4,42.1,29.20,North,0,1.6,3.6,85,0.00,,OVC240,0.13,VWS V14.01,2013-03-23 16:00:00,
2013-03-23 11:08:00,46.4,41.5,29.20,NNE,22,4.3,4.3,83,0.00,,OVC240,0.13,VWS V14.01,2013-03-23 16:08:00,
2013-03-23 11:10:00,46.4,41.5,29.20,NNE,22,4.3,4.3,83,0.00,,OVC240,0.13,VWS V14.01,2013-03-23 16:10:00,
2013-03-23 11:18:00,46.9,43.0,29.17,ENE,68,3.8,3.8,86,0.00,,OVC240,0.13,VWS V14.01,2013-03-23 16:18:00,
2013-03-23 11:20:00,46.9,43.0,29.17,ENE,68,3.8,3.8,86,0.00,,OVC240,0.13,VWS V14.01,2013-03-23 16:20:00,
2013-03-23 11:28:00,46.8,43.1,29.17,North,0,2.7,4.3,87,0.00,,OVC240,0.13,VWS V14.01,2013-03-23 16:28:00,
2013-03-23 11:30:00,46.8,43.1,29.17,North,0,2.7,4.3,87,0.00,,OVC240,0.13,VWS V14.01,2013-03-23 16:30:00,
2013-03-23 11:38:00,47.1,43.8,29.17,NNE,22,3.4,3.4,88,0.00,,OVC240,0.13,VWS V14.01,2013-03-23 16:38:00,
2013-03-23 11:40:00,47.1,43.8,29.17,NNE,22,3.4,3.4,88,0.00,,OVC240,0.13,VWS V14.01,2013-03-23 16:40:00,
2013-03-23 11:48:00,47.5,44.4,29.17,ENE,68,2.7,2.7,89,0.00,,OVC240,0.13,VWS V14.01,2013-03-23 16:48:00,
2013-03-23 11:50:00,47.5,44.4,29.17,ENE,68,2.7,2.7,89,0.00,,OVC240,0.13,VWS V14.01,2013-03-23 16:50:00,
2013-03-23 11:58:00,48.4,44.7,29.20,NE,45,2.5,2.5,87,0.00,,OVC240,0.13,VWS V14.01,2013-03-23 16:58:00,
2013-03-23 12:00:00,48.4,44.7,29.20,NE,45,2.5,2.5,87,0.00,,OVC240,0.13,VWS V14.01,2013-03-23 17:00:00,
2013-03-23 12:08:00,49.6,45.6,29.20,NE,45,3.6,3.8,86,0.00,,OVC240,0.13,VWS V14.01,2013-03-23 17:08:00,
2013-03-23 12:10:00,49.6,45.6,29.20,NE,45,3.6,3.8,86,0.00,,OVC240,0.13,VWS V14.01,2013-03-23 17:10:00,
2013-03-23 12:18:00,50.5,45.6,29.20,NNW,338,2.0,3.6,83,0.00,,OVC240,0.13,VWS V14.01,2013-03-23 17:18:00,
2013-03-23 12:20:00,50.5,45.6,29.20,NNW,338,2.0,3.6,83,0.00,,OVC240,0.13,VWS V14.01,2013-03-23 17:20:00,
2013-03-23 12:28:00,51.6,45.0,29.20,NE,45,2.5,2.5,78,0.00,,OVC240,0.13,VWS V14.01,2013-03-23 17:28:00,
2013-03-23 12:30:00,51.6,45.0,29.20,NE,45,2.5,2.5,78,0.00,,OVC240,0.13,VWS V14.01,2013-03-23 17:30:00,
2013-03-23 12:39:00,51.8,44.8,29.20,NE,45,2.9,3.6,77,0.00,,OVC240,0.13,VWS V14.01,2013-03-23 17:39:00,
2013-03-23 12:40:00,51.8,44.8,29.20,NE,45,2.9,3.6,77,0.00,,OVC240,0.13,VWS V14.01,2013-03-23 17:40:00,
2013-03-23 12:48:00,52.5,45.5,29.17,NE,45,4.3,5.8,77,0.00,,OVC240,0.13,VWS V14.01,2013-03-23 17:48:00,
2013-03-23 12:50:00,52.5,45.5,29.17,NE,45,4.3,5.8,77,0.00,,OVC240,0.13,VWS V14.01,2013-03-23 17:50:00,
2013-03-23 12:58:00,53.2,45.5,29.14,East,90,2.0,2.2,75,0.00,,OVC240,0.13,VWS V14.01,2013-03-23 17:58:00,
2013-03-23 13:00:00,53.2,45.5,29.15,East,90,2.0,2.2,75,0.00,,OVC240,0.13,VWS V14.01,2013-03-23 18:00:00,
2013-03-23 13:08:00,54.3,46.2,29.14,ENE,68,2.9,3.6,74,0.00,,OVC240,0.13,VWS V14.01,2013-03-23 18:08:00,
2013-03-23 13:10:00,54.3,46.2,29.15,ENE,68,2.9,3.6,74,0.00,,OVC240,0.13,VWS V14.01,2013-03-23 18:10:00,
2013-03-23 13:18:00,55.2,45.6,29.14,NE,45,2.5,2.5,70,0.00,,OVC240,0.13,VWS V14.01,2013-03-23 18:18:00,
2013-03-23 13:20:00,55.2,45.6,29.15,NE,45,2.5,2.5,70,0.00,,OVC240,0.13,VWS V14.01,2013-03-23 18:20:00,
2013-03-23 13:28:00,55.8,46.5,29.14,NE,45,4.5,5.6,71,0.00,,OVC240,0.13,VWS V14.01,2013-03-23 18:28:00,
2013-03-23 13:30:00,55.8,46.5,29.15,NE,45,4.5,5.6,71,0.00,,OVC240,0.13,VWS V14.01,2013-03-23 18:30:00,
2013-03-23 13:38:00,54.5,44.9,29.14,SSW,202,0.9,1.6,70,0.00,,OVC240,0.13,VWS V14.01,2013-03-23 18:38:00,
2013-03-23 13:40:00,54.5,44.9,29.15,SSW,202,0.9,1.6,70,0.00,,OVC240,0.13,VWS V14.01,2013-03-23 18:40:00,
2013-03-23 13:49:00,55.0,45.5,29.14,NNE,22,1.3,1.6,70,0.00,,OVC240,0.13,VWS V14.01,2013-03-23 18:49:00,
2013-03-23 13:50:00,55.0,45.5,29.15,NNE,22,1.3,1.6,70,0.00,,OVC240,0.13,VWS V14.01,2013-03-23 18:50:00,
2013-03-23 13:58:00,55.6,46.3,29.14,NNE,22,4.0,4.0,71,0.00,,OVC240,0.13,VWS V14.01,2013-03-23 18:58:00,
2013-03-23 14:00:00,55.6,46.3,29.15,NNE,22,4.0,4.0,71,0.00,,OVC240,0.13,VWS V14.01,2013-03-23 19:00:00,
2013-03-23 14:10:00,58.5,48.0,29.15,NNE,22,2.0,2.0,68,0.00,,OVC240,0.13,VWS V14.01,2013-03-23 19:10:00,
2013-03-23 14:18:00,60.4,46.9,29.14,East,90,4.3,4.9,61,0.00,,OVC240,0.13,VWS V14.01,2013-03-23 19:18:00,
2013-03-23 14:20:00,60.4,46.9,29.15,East,90,4.3,4.9,61,0.00,,OVC240,0.13,VWS V14.01,2013-03-23 19:20:00,
2013-03-23 14:29:00,61.9,48.3,29.15,West,270,2.0,2.0,61,0.00,,OVC240,0.13,VWS V14.01,2013-03-23 19:29:00,
2013-03-23 14:34:00,61.9,48.3,29.14,West,270,2.0,2.0,61,0.00,,OVC240,0.13,VWS V14.01,2013-03-23 19:34:00,
2013-03-23 14:40:00,62.6,45.2,29.11,North,0,3.4,3.4,53,0.00,,OVC240,0.13,VWS V14.01,2013-03-23 19:40:00,
2013-03-23 14:49:00,60.3,45.0,29.12,NNE,22,3.8,3.8,57,0.00,,OVC240,0.13,VWS V14.01,2013-03-23 19:49:00,
2013-03-23 14:50:00,60.3,45.0,29.11,NNE,22,3.8,3.8,57,0.00,,OVC240,0.13,VWS V14.01,2013-03-23 19:50:00,
2013-03-23 14:59:00,58.8,45.4,29.12,ENE,68,1.6,1.6,61,0.00,,OVC240,0.13,VWS V14.01,2013-03-23 19:59:00,
2013-03-23 15:00:00,58.8,45.4,29.11,ENE,68,1.6,1.6,61,0.00,,OVC240,0.13,VWS V14.01,2013-03-23 20:00:00,
2013-03-23 15:08:00,57.7,45.7,29.12,SW,225,0.0,0.9,64,0.00,,OVC240,0.13,VWS V14.01,2013-03-23 20:08:00,
2013-03-23 15:10:00,57.7,45.7,29.11,SW,225,0.0,0.9,64,0.00,,OVC240,0.13,VWS V14.01,2013-03-23 20:10:00,
2013-03-23 15:19:00,56.8,45.2,29.12,ENE,68,0.0,0.9,65,0.00,,OVC240,0.13,VWS V14.01,2013-03-23 20:19:00,
2013-03-23 15:20:00,56.8,45.2,29.11,ENE,68,0.0,0.9,65,0.00,,OVC240,0.13,VWS V14.01,2013-03-23 20:20:00,
2013-03-23 15:28:00,56.7,45.4,29.09,WNW,292,3.1,3.1,66,0.00,,OVC240,0.13,VWS V14.01,2013-03-23 20:28:00,
2013-03-23 15:30:00,56.7,45.4,29.09,WNW,292,3.1,3.1,66,0.00,,OVC240,0.13,VWS V14.01,2013-03-23 20:30:00,
2013-03-23 15:38:00,57.0,47.0,29.09,ENE,68,2.0,2.0,69,0.00,,OVC240,0.13,VWS V14.01,2013-03-23 20:38:00,
2013-03-23 15:40:00,57.0,47.0,29.09,ENE,68,2.0,2.0,69,0.00,,OVC240,0.13,VWS V14.01,2013-03-23 20:40:00,
2013-03-23 15:48:00,56.7,45.8,29.09,NE,45,0.0,0.0,67,0.00,,OVC240,0.13,VWS V14.01,2013-03-23 20:48:00,
2013-03-23 15:50:00,56.7,45.8,29.09,NE,45,0.0,0.0,67,0.00,,OVC240,0.13,VWS V14.01,2013-03-23 20:50:00,
2013-03-23 15:58:00,55.4,45.8,29.12,South,180,1.1,2.2,70,0.00,,OVC240,0.13,VWS V14.01,2013-03-23 20:58:00,
2013-03-23 16:00:00,55.4,45.8,29.11,South,180,1.1,2.2,70,0.00,,OVC240,0.13,VWS V14.01,2013-03-23 21:00:00,
2013-03-23 16:08:00,54.5,45.3,29.12,WSW,248,2.5,2.5,71,0.00,,OVC240,0.13,VWS V14.01,2013-03-23 21:08:00,
2013-03-23 16:10:00,54.5,45.3,29.11,WSW,248,2.5,2.5,71,0.00,,OVC240,0.13,VWS V14.01,2013-03-23 21:10:00,
2013-03-23 16:18:00,54.1,45.3,29.09,SSW,202,2.9,3.1,72,0.00,,OVC240,0.13,VWS V14.01,2013-03-23 21:18:00,
2013-03-23 16:20:00,54.1,45.3,29.09,SSW,202,2.9,3.1,72,0.00,,OVC240,0.13,VWS V14.01,2013-03-23 21:20:00,
2013-03-23 16:28:00,54.0,45.5,29.12,WSW,248,2.5,3.1,73,0.00,,OVC240,0.13,VWS V14.01,2013-03-23 21:28:00,
2013-03-23 16:30:00,54.0,45.5,29.11,WSW,248,2.5,3.1,73,0.00,,OVC240,0.13,VWS V14.01,2013-03-23 21:30:00,
2013-03-23 16:38:00,54.1,45.7,29.12,West,270,2.0,2.0,73,0.00,,OVC240,0.13,VWS V14.01,2013-03-23 21:38:00,
2013-03-23 16:40:00,54.1,45.7,29.11,West,270,2.0,2.0,73,0.00,,OVC240,0.13,VWS V14.01,2013-03-23 21:40:00,
2013-03-23 16:49:00,54.5,46.0,29.12,WSW,248,1.6,2.5,73,0.00,,OVC240,0.13,VWS V14.01,2013-03-23 21:49:00,
2013-03-23 16:50:00,54.5,46.0,29.11,WSW,248,1.6,2.5,73,0.00,,OVC240,0.13,VWS V14.01,2013-03-23 21:50:00,
2013-03-23 16:58:00,54.9,46.0,29.09,South,180,2.0,2.5,72,0.00,,OVC240,0.13,VWS V14.01,2013-03-23 21:58:00,
2013-03-23 17:00:00,54.9,46.0,29.09,South,180,2.0,2.5,72,0.00,,OVC240,0.13,VWS V14.01,2013-03-23 22:00:00,
2013-03-23 17:08:00,55.0,46.2,29.09,West,270,0.0,0.9,72,0.00,,OVC240,0.13,VWS V14.01,2013-03-23 22:08:00,
2013-03-23 17:10:00,55.0,46.2,29.09,West,270,0.0,0.9,72,0.00,,OVC240,0.13,VWS V14.01,2013-03-23 22:10:00,
2013-03-23 17:18:00,54.7,45.5,29.12,SW,225,0.9,1.1,71,0.00,,OVC240,0.13,VWS V14.01,2013-03-23 22:18:00,
2013-03-23 17:20:00,54.7,45.5,29.11,SW,225,0.9,1.1,71,0.00,,OVC240,0.13,VWS V14.01,2013-03-23 22:20:00,
2013-03-23 17:28:00,54.0,45.5,29.12,SSW,202,1.3,3.1,73,0.00,,OVC240,0.13,VWS V14.01,2013-03-23 22:28:00,
2013-03-23 17:30:00,54.0,45.5,29.11,SSW,202,1.3,3.1,73,0.00,,OVC240,0.13,VWS V14.01,2013-03-23 22:30:00,
2013-03-23 17:38:00,53.2,44.8,29.12,West,270,0.9,1.6,73,0.00,,OVC240,0.13,VWS V14.01,2013-03-23 22:38:00,
2013-03-23 17:40:00,53.2,44.8,29.11,West,270,0.9,1.6,73,0.00,,OVC240,0.13,VWS V14.01,2013-03-23 22:40:00,
2013-03-23 17:49:00,52.5,45.9,29.06,North,0,2.9,2.9,78,0.00,,OVC240,0.13,VWS V14.01,2013-03-23 22:49:00,
2013-03-23 17:50:00,52.5,45.9,29.06,North,0,2.9,2.9,78,0.00,,OVC240,0.13,VWS V14.01,2013-03-23 22:50:00,
2013-03-23 17:58:00,52.3,46.7,29.03,NW,315,1.3,1.3,81,0.00,,OVC240,0.13,VWS V14.01,2013-03-23 22:58:00,
2013-03-23 18:00:00,52.3,46.7,29.03,NW,315,1.3,1.3,81,0.00,,OVC240,0.13,VWS V14.01,2013-03-23 23:00:00,
2013-03-23 18:08:00,52.2,47.5,29.03,North,0,1.1,1.6,84,0.00,,OVC240,0.13,VWS V14.01,2013-03-23 23:08:00,
2013-03-23 18:10:00,52.2,47.5,29.03,North,0,1.1,1.6,84,0.00,,OVC240,0.13,VWS V14.01,2013-03-23 23:10:00,
2013-03-23 18:18:00,52.0,47.0,29.06,North,0,3.1,3.4,83,0.00,,OVC240,0.13,VWS V14.01,2013-03-23 23:18:00,
2013-03-23 18:20:00,52.0,47.0,29.06,North,0,3.1,3.4,83,0.00,,OVC240,0.13,VWS V14.01,2013-03-23 23:20:00,
2013-03-23 18:28:00,52.0,46.7,29.06,NW,315,3.6,3.6,82,0.00,,OVC240,0.13,VWS V14.01,2013-03-23 23:28:00,
2013-03-23 18:30:00,52.0,46.7,29.06,NW,315,3.6,3.6,82,0.00,,OVC240,0.13,VWS V14.01,2013-03-23 23:30:00,
2013-03-23 18:38:00,52.0,46.0,29.06,North,0,3.1,3.8,80,0.00,,OVC240,0.13,VWS V14.01,2013-03-23 23:38:00,
2013-03-23 18:40:00,52.0,46.0,29.06,North,0,3.1,3.8,80,0.00,,OVC240,0.13,VWS V14.01,2013-03-23 23:40:00,
2013-03-23 18:48:00,52.0,45.3,29.06,North,0,3.1,3.1,78,0.00,,OVC240,0.13,VWS V14.01,2013-03-23 23:48:00,
2013-03-23 18:50:00,52.0,45.3,29.06,North,0,3.1,3.1,78,0.00,,OVC240,0.13,VWS V14.01,2013-03-23 23:50:00,
2013-03-23 18:58:00,51.6,45.0,29.06,NNE,22,2.5,2.7,78,0.00,,OVC240,0.13,VWS V14.01,2013-03-23 23:58:00,
2013-03-23 19:00:00,51.6,45.0,29.06,NNE,22,2.5,2.7,78,0.00,,OVC240,0.13,VWS V14.01,2013-03-24 00:00:00,
2013-03-23 19:08:00,51.1,44.1,29.06,NNE,22,1.3,1.3,77,0.00,,OVC240,0.13,VWS V14.01,2013-03-24 00:08:00,
2013-03-23 19:10:00,51.1,44.1,29.06,NNE,22,1.3,1.3,77,0.00,,OVC240,0.13,VWS V14.01,2013-03-24 00:10:00,
2013-03-23 19:18:00,49.8,43.6,29.03,NW,315,0.9,2.0,79,0.00,,OVC240,0.13,VWS V14.01,2013-03-24 00:18:00,
2013-03-23 19:20:00,49.8,43.6,29.03,NW,315,0.9,2.0,79,0.00,,OVC240,0.13,VWS V14.01,2013-03-24 00:20:00,
2013-03-23 19:28:00,48.9,43.3,29.06,North,0,1.1,2.0,81,0.00,,OVC240,0.13,VWS V14.01,2013-03-24 00:28:00,
2013-03-23 19:30:00,48.9,43.3,29.06,North,0,1.1,2.0,81,0.00,,OVC240,0.13,VWS V14.01,2013-03-24 00:30:00,
2013-03-23 19:38:00,48.7,44.4,29.06,North,0,2.0,2.2,85,0.00,,OVC240,0.13,VWS V14.01,2013-03-24 00:38:00,
2013-03-23 19:40:00,48.7,44.4,29.06,North,0,2.0,2.2,85,0.00,,OVC240,0.13,VWS V14.01,2013-03-24 00:40:00,
2013-03-23 19:48:00,48.4,44.1,29.03,NW,315,0.0,0.0,85,0.00,,OVC240,0.13,VWS V14.01,2013-03-24 00:48:00,
2013-03-23 19:50:00,48.4,44.1,29.03,NW,315,0.0,0.0,85,0.00,,OVC240,0.13,VWS V14.01,2013-03-24 00:50:00,
2013-03-23 19:58:00,48.7,44.4,29.03,North,0,0.0,1.1,85,0.00,,OVC240,0.13,VWS V14.01,2013-03-24 00:58:00,
2013-03-23 20:00:00,48.7,44.4,29.03,North,0,0.0,1.1,85,0.00,,OVC240,0.13,VWS V14.01,2013-03-24 01:00:00,
2013-03-23 20:08:00,48.2,43.9,29.03,North,0,2.2,2.5,85,0.00,,OVC240,0.13,VWS V14.01,2013-03-24 01:08:00,
2013-03-23 20:10:00,48.2,43.9,29.03,North,0,2.2,2.5,85,0.00,,OVC240,0.13,VWS V14.01,2013-03-24 01:10:00,
2013-03-23 20:18:00,47.8,43.9,29.03,North,0,0.0,0.0,86,0.00,,OVC240,0.13,VWS V14.01,2013-03-24 01:18:00,
2013-03-23 20:20:00,47.8,43.9,29.03,North,0,0.0,0.0,86,0.00,,OVC240,0.13,VWS V14.01,2013-03-24 01:20:00,
2013-03-23 20:28:00,47.8,44.2,29.03,North,0,2.9,2.9,87,0.00,,OVC240,0.13,VWS V14.01,2013-03-24 01:28:00,
2013-03-23 20:30:00,47.8,44.2,29.03,North,0,2.9,2.9,87,0.00,,OVC240,0.13,VWS V14.01,2013-03-24 01:30:00,
2013-03-23 20:38:00,48.7,44.8,29.03,NW,315,2.0,2.7,86,0.00,,OVC240,0.13,VWS V14.01,2013-03-24 01:38:00,
2013-03-23 20:40:00,48.7,44.8,29.03,NW,315,2.0,2.7,86,0.00,,OVC240,0.13,VWS V14.01,2013-03-24 01:40:00,
2013-03-23 20:48:00,49.6,45.0,29.00,North,0,3.1,3.4,84,0.00,,OVC240,0.13,VWS V14.01,2013-03-24 01:48:00,
2013-03-23 20:50:00,49.6,45.0,29.00,North,0,3.1,3.4,84,0.00,,OVC240,0.13,VWS V14.01,2013-03-24 01:50:00,
2013-03-23 20:58:00,50.0,44.7,29.00,North,0,2.2,2.5,82,0.00,,OVC240,0.13,VWS V14.01,2013-03-24 01:58:00,
2013-03-23 21:00:00,50.0,44.7,29.00,North,0,2.2,2.5,82,0.00,,OVC240,0.13,VWS V14.01,2013-03-24 02:00:00,
2013-03-23 21:08:00,50.2,44.9,29.00,North,0,0.0,0.0,82,0.00,,OVC240,0.13,VWS V14.01,2013-03-24 02:08:00,
2013-03-23 21:10:00,50.2,44.9,29.00,North,0,0.0,0.0,82,0.00,,OVC240,0.13,VWS V14.01,2013-03-24 02:10:00,
2013-03-23 21:18:00,50.2,44.9,29.00,North,0,2.9,2.9,82,0.00,,OVC240,0.13,VWS V14.01,2013-03-24 02:18:00,
2013-03-23 21:20:00,50.2,44.9,29.00,North,0,2.9,2.9,82,0.00,,OVC240,0.13,VWS V14.01,2013-03-24 02:20:00,
2013-03-23 21:28:00,50.0,44.7,29.03,NW,315,0.0,0.9,82,0.00,,OVC240,0.13,VWS V14.01,2013-03-24 02:28:00,
2013-03-23 21:30:00,50.0,44.7,29.03,NW,315,0.0,0.9,82,0.00,,OVC240,0.13,VWS V14.01,2013-03-24 02:30:00,
2013-03-23 21:38:00,50.0,45.0,29.03,NW,315,0.0,0.9,83,0.00,,OVC240,0.13,VWS V14.01,2013-03-24 02:38:00,
2013-03-23 21:40:00,50.0,45.0,29.03,NW,315,0.0,0.9,83,0.00,,OVC240,0.13,VWS V14.01,2013-03-24 02:40:00,
2013-03-23 21:48:00,50.7,45.1,29.03,NE,45,0.0,0.0,81,0.00,,OVC240,0.13,VWS V14.01,2013-03-24 02:48:00,
2013-03-23 21:50:00,50.7,45.1,29.03,NE,45,0.0,0.0,81,0.00,,OVC240,0.13,VWS V14.01,2013-03-24 02:50:00,
2013-03-23 21:58:00,50.9,45.3,29.03,North,0,2.2,2.2,81,0.00,,OVC240,0.13,VWS V14.01,2013-03-24 02:58:00,
2013-03-23 22:00:00,50.9,45.3,29.03,North,0,2.2,2.2,81,0.00,,OVC240,0.13,VWS V14.01,2013-03-24 03:00:00,
2013-03-23 22:08:00,50.4,45.7,29.03,North,0,2.5,2.5,84,0.00,,OVC240,0.13,VWS V14.01,2013-03-24 03:08:00,
2013-03-23 22:10:00,50.4,45.7,29.03,North,0,2.5,2.5,84,0.00,,OVC240,0.13,VWS V14.01,2013-03-24 03:10:00,
2013-03-23 22:18:00,50.2,46.2,29.03,North,0,2.2,2.2,86,0.00,,OVC240,0.13,VWS V14.01,2013-03-24 03:18:00,
2013-03-23 22:20:00,50.2,46.2,29.03,North,0,2.2,2.2,86,0.00,,OVC240,0.13,VWS V14.01,2013-03-24 03:20:00,
2013-03-23 22:28:00,49.8,46.1,29.03,North,0,1.3,1.3,87,0.00,,OVC240,0.13,VWS V14.01,2013-03-24 03:28:00,
2013-03-23 22:30:00,49.8,46.1,29.03,North,0,1.3,1.3,87,0.00,,OVC240,0.13,VWS V14.01,2013-03-24 03:30:00,
2013-03-23 22:38:00,49.3,46.5,29.03,West,270,1.6,1.6,90,0.04,,OVC240,0.17,VWS V14.01,2013-03-24 03:38:00,
2013-03-23 22:40:00,49.3,46.5,29.03,West,270,1.6,1.6,90,0.04,,OVC240,0.17,VWS V14.01,2013-03-24 03:40:00,
2013-03-23 22:48:00,49.1,46.6,29.09,West,270,0.0,0.0,91,0.04,,OVC240,0.17,VWS V14.01,2013-03-24 03:48:00,
2013-03-23 22:50:00,49.1,46.6,29.09,West,270,0.0,0.0,91,0.04,,OVC240,0.17,VWS V14.01,2013-03-24 03:50:00,
2013-03-23 22:58:00,48.9,46.4,29.06,West,270,1.3,1.6,91,0.12,,OVC240,0.25,VWS V14.01,2013-03-24 03:58:00,
2013-03-23 23:00:00,48.9,46.4,29.06,West,270,1.3,1.6,91,0.12,,OVC240,0.25,VWS V14.01,2013-03-24 04:00:00,
2013-03-23 23:08:00,48.7,46.8,29.06,SSW,202,0.0,2.2,93,0.16,,OVC240,0.29,VWS V14.01,2013-03-24 04:08:00,
2013-03-23 23:10:00,48.7,46.8,29.06,SSW,202,0.0,2.2,93,0.16,,OVC240,0.29,VWS V14.01,2013-03-24 04:10:00,
2013-03-23 23:28:00,48.4,47.6,29.03,West,270,1.6,1.6,97,0.28,,OVC240,0.41,VWS V14.01,2013-03-24 04:28:00,
2013-03-23 23:30:00,48.4,47.6,29.03,West,270,1.6,1.6,97,0.28,,OVC240,0.41,VWS V14.01,2013-03-24 04:30:00,
2013-03-23 23:38:00,48.6,47.8,29.03,West,270,5.8,8.7,97,0.33,,OVC240,0.46,VWS V14.01,2013-03-24 04:38:00,
2013-03-23 23:40:00,48.6,47.8,29.03,West,270,5.8,8.7,97,0.33,,OVC240,0.46,VWS V14.01,2013-03-24 04:40:00,
2013-03-23 23:48:00,48.7,47.9,29.00,SW,225,4.9,4.9,97,0.29,,OVC240,0.46,VWS V14.01,2013-03-24 04:48:00,
2013-03-23 23:50:00,48.7,47.9,29.00,SW,225,4.9,4.9,97,0.29,,OVC240,0.46,VWS V14.01,2013-03-24 04:50:00,
2013-03-23 23:59:00,49.1,48.6,28.97,SW,225,4.0,4.5,98,0.33,,OVC240,0.00,VWS V14.01,2013-03-24 04:59:00,